,

(GMT )
Banff

Weather History for CWZG - January, 2013

Change the Weather History Date:

Wednesday, January 16, 2013

  Actual Average Record
Temperature  
Mean Temperature 30 °F -  
Max Temperature 35 °F - - ()
Min Temperature 25 °F - - ()
Degree Days  
Heating Degree Days 35    
Moisture  
Dew Point 18 °F    
Average Humidity 61    
Maximum Humidity 70    
Minimum Humidity 51    
Precipitation  
Precipitation 0.00 in - - ()
Sea Level Pressure  
Sea Level Pressure 30.27 in    
Wind  
Wind Speed 8 mph ()    
Max Wind Speed 12 mph    
Max Gust Speed 21 mph    
T = Trace of Precipitation, MM = Missing Value Source: Averaged Metar Reports

Daily Weather History Graph

Daily Weather History Graph

Search for Another Location

Airport or City:

Trip Planner

Search our weather history database for the weather conditions in past years. The results will help you decide how hot, cold, wet, or windy it might be!

Date:

Astronomy

Jan. 16, 2013 Rise Set
Actual Time 8:38 AM MST 5:06 PM MST
Civil Twilight 8:00 AM MST 5:44 PM MST
Nautical Twilight 7:19 AM MST 6:25 PM MST
Astronomical Twilight 6:39 AM MST 7:05 PM MST
Moon 10:33 AM MST (1/16) 11:49 PM MST (1/16)
Length of Visible Light 9h 43m
Length of Day
8h 27m
Waxing Crescent, 29% of the Moon is Illuminated
Jan 16
Waxing Crescent
Jan 18
First Quarter
Jan 26
Full
Feb 3
Last Quarter
Feb 10
New

Hourly Weather History & Observations

Time (MST) Temp. Windchill Dew Point Humidity Pressure Visibility Wind Dir Wind Speed Gust Speed Precip Events Conditions
1:00 AM 27.1 °F 18.2 °F 14.9 °F 60% 30.17 in - WSW 9.2 mph 17.3 mph N/A   Unknown
2:00 AM 26.6 °F 16.2 °F 14.4 °F 60% 30.16 in - WSW 11.5 mph 20.7 mph N/A   Unknown
4:00 AM 27.5 °F 19.3 °F 14.9 °F 59% 30.21 in - West 8.1 mph - N/A   Unknown
5:00 AM 27.0 °F 18.0 °F 14.7 °F 60% 30.21 in - WSW 9.2 mph 19.6 mph N/A   Unknown
6:00 AM 26.1 °F 18.4 °F 15.8 °F 65% 30.23 in - West 6.9 mph - N/A   Unknown
7:00 AM 25.9 °F 17.4 °F 16.0 °F 66% 30.24 in - West 8.1 mph - N/A   Unknown
8:00 AM 25.7 °F 16.4 °F 16.3 °F 68% 30.25 in - WSW 9.2 mph - N/A   Unknown
9:00 AM 25.7 °F 20.1 °F 17.1 °F 70% 30.27 in - WSW 4.6 mph - N/A   Unknown
10:00 AM 25.3 °F 16.7 °F 16.2 °F 68% 30.29 in - WSW 8.1 mph - N/A   Unknown
11:00 AM 26.6 °F 16.8 °F 16.7 °F 66% 30.29 in - West 10.4 mph 18.4 mph N/A   Unknown
12:00 PM 30.7 °F 23.3 °F 17.2 °F 57% 30.26 in - WSW 8.1 mph - N/A   Unknown
1:00 PM 34.7 °F 27.5 °F 18.0 °F 51% 30.24 in - WSW 9.2 mph - N/A   Unknown
2:00 PM 35.4 °F 27.8 °F 18.9 °F 51% 30.24 in - WSW 10.4 mph 20.7 mph N/A   Unknown
3:00 PM 35.8 °F 28.8 °F 19.8 °F 52% 30.26 in - WSW 9.2 mph 17.3 mph N/A   Unknown
4:00 PM 35.1 °F 27.9 °F 20.7 °F 56% 30.28 in - WSW 9.2 mph - N/A   Unknown
5:00 PM 34.7 °F 27.5 °F 20.5 °F 56% 30.30 in - WSW 9.2 mph 18.4 mph N/A   Unknown
6:00 PM 34.3 °F 27.7 °F 20.5 °F 57% 30.31 in - WSW 8.1 mph - N/A   Unknown
7:00 PM 33.6 °F 26.8 °F 21.0 °F 60% 30.32 in - SW 8.1 mph - N/A   Unknown
8:00 PM 31.5 °F 24.9 °F 21.2 °F 66% 30.34 in - SW 6.9 mph - N/A   Unknown
9:00 PM 31.3 °F 24.7 °F 21.2 °F 66% 30.33 in - WSW 6.9 mph - N/A   Unknown
10:00 PM 31.3 °F 25.6 °F 21.6 °F 67% 30.33 in - WSW 5.8 mph - N/A   Unknown
11:00 PM 32.9 °F 26.7 °F 21.2 °F 62% 30.31 in - WSW 6.9 mph - N/A   Unknown